OVERFALLS Weather Reports


Display with metric or nautical units.
time (UTC)temp
F
wind
direction
speed
MPH
gust
MPH
rain 1hr
in
rain 24hr
in
rain mn
in
humidity
%
barometer
mb
20260505051544 63 246 8.0 17.0 0.00 0.00 0.00 73 1012.3
20260505041544 63 221 7.0 15.0 0.00 0.00 0.00 72 1012.7
20260505040044 63 217 7.0 14.0 0.00 0.00 0.00 73 1012.6
20260505034542 62 195 7.0 14.0 0.00 0.00 0.00 73 1012.6
20260505033043 62 175 7.0 12.0 0.00 0.00 0.00 73 1012.4
20260505031554 62 217 6.0 16.0 0.00 0.00 0.00 73 1012.2
20260505030046 62 205 7.0 18.0 0.00 0.00 0.00 72 1012.3
20260505024548 62 235 7.0 11.0 0.00 0.00 0.00 72 1012.4
20260505023046 63 190 5.0 10.0 0.00 0.00 0.00 72 1012.4
20260505021541 63 167 5.0 13.0 0.00 0.00 0.00 71 1012.4
20260505020041 63 175 7.0 14.0 0.00 0.00 0.00 71 1012.6
20260505014600 63 207 7.0 16.0 0.00 0.00 0.00 70 1012.5
20260505013044 63 169 6.0 12.0 0.00 0.00 0.00 69 1012.5
20260505011548 63 171 4.0 14.0 0.00 0.00 0.00 68 1012.4
20260505010045 63 194 6.0 9.0 0.00 0.00 0.00 67 1012.4
20260505004542 64 188 6.0 13.0 0.00 0.00 0.00 66 1012.4
20260505003046 64 165 4.0 9.0 0.00 0.00 0.00 66 1012.4
20260505001546 65 194 5.0 11.0 0.00 0.00 0.00 65 1012.4
20260505000049 66 188 5.0 12.0 0.00 0.00 0.00 62 1012.2
20260504234542 67 204 5.0 15.0 0.00 0.00 0.00 60 1012.0
20260504233047 67 195 7.0 15.0 0.00 0.00 0.00 59 1011.9
20260504231542 68 196 8.0 17.0 0.00 0.00 0.00 56 1011.7
20260504230050 68 360 10.0 22.0 0.00 0.00 0.00 53 1011.8
20260504224547 69 360 10.0 21.0 0.00 0.00 0.00 51 1011.7
20260504223040 73 360 7.0 19.0 0.00 0.00 0.00 36 1011.8
20260504221543 73 360 8.0 18.0 0.00 0.00 0.00 35 1011.6
20260504220049 74 360 8.0 14.0 0.00 0.00 0.00 33 1011.7
20260504214553 74 360 9.0 16.0 0.00 0.00 0.00 31 1011.8
20260504213049 74 360 9.0 18.0 0.00 0.00 0.00 32 1011.7
20260504211542 74 360 10.0 20.0 0.00 0.00 0.00 32 1011.8
20260504210055 74 360 10.0 17.0 0.00 0.00 0.00 32 1011.8
20260504204557 75 360 7.0 19.0 0.00 0.00 0.00 33 1011.7
20260504203044 74 360 11.0 19.0 0.00 0.00 0.00 32 1011.8
20260504201540 74 360 8.0 17.0 0.00 0.00 0.00 32 1011.8
20260504200043 75 360 6.0 15.0 0.00 0.00 0.00 32 1011.9
20260504194542 75 360 7.0 15.0 0.00 0.00 0.00 32 1012.1
20260504193043 75 360 7.0 14.0 0.00 0.00 0.00 33 1012.3
20260504191542 75 251 7.0 17.0 0.00 0.00 0.00 32 1012.4
20260504190041 75 224 3.0 16.0 0.00 0.00 0.00 32 1012.6
20260504184543 75 251 5.0 12.0 0.00 0.00 0.00 32 1012.7
20260504183041 74 238 7.0 14.0 0.00 0.00 0.00 32 1012.8
20260504181541 74 245 8.0 12.0 0.00 0.00 0.00 31 1013.1
20260504180041 73 209 7.0 16.0 0.00 0.00 0.00 33 1013.0
20260504174541 73 212 8.0 20.0 0.00 0.00 0.00 32 1013.2
20260504173051 73 184 6.0 17.0 0.00 0.00 0.00 32 1013.3
20260504171545 73 261 8.0 19.0 0.00 0.00 0.00 33 1013.4
20260504081544 50 264 6.0 16.0 0.00 0.00 0.00 75 1016.7